Regional Weather Roundup
Issued by NWS Newport/Morehead, NC

Current Version | Previous Version | Text Only | Print | Product List | Glossary Off
Versions: 1 2 3 4 5 6 7 8 9 10 11 12 13 14 15 16 17 18 19 20 21 22 23 24 25 26 27 28 29 30 31 32 33 34 35 36 37 38 39 40 41 42 43 44 45 46 47 48 49 50
000 ASUS42 KMHX 231610 RWRMHX WEATHER ROUNDUP FOR EASTERN NORTH CAROLINA NATIONAL WEATHER SERVICE NEWPORT/MOREHEAD CITY NC 1100 AM EST SUN NOV 23 2014 NOTE: "FAIR" INDICATES FEW OR NO CLOUDS BELOW 12,000 FEET WITH NO SIGNIFICANT WEATHER AND/OR OBSTRUCTIONS TO VISIBILITY NCZ015>017-031-032-045>047-102-103-231700- NORTH COAST CITY SKY/WX TMP DP RH WIND PRES REMARKS EDENTON CLOUDY 55 46 73 S3 30.27F ELIZABETH CITY CLOUDY 56 46 69 CALM 30.27R KITTY HAWK CLOUDY 61 51 69 SE3 30.26R MANTEO CLOUDY 61 50 66 SE3 30.27R $$ NCZ045>047-081-094-103-104-231700- CENTRAL COAST CITY SKY/WX TMP DP RH WIND PRES REMARKS FRISCO CLOUDY 63 57 81 S10 30.25F SWANQUARTER N/A 61 N/A N/A NE3 30.24R $$ NCZ095-097-098-100-101-231700- SOUTHERN COAST CITY SKY/WX TMP DP RH WIND PRES REMARKS BEAUFORT LGT RAIN 64 56 75 SE8 30.23F CEDAR ISLAND N/A 63 N/A N/A SE7G13 30.27F JACKSONVILLE LGT RAIN 53 51 93 N6 30.22F PINEY ISLAND LGT RAIN 64 57 78 CALM 30.25S WILMINGTON LGT RAIN 60 59 96 E6 30.19F $$ NCZ011>013-027>030-043-044-078>080-089-090>093-098-231700- COASTAL PLAIN CITY SKY/WX TMP DP RH WIND PRES REMARKS AHOSKIE N/A 50 41 70 S3 30.25F CLINTON LGT RAIN 50 49 97 CALM 30.21F ELIZABETHTOWN LGT RAIN 50 50 100 CALM 30.19F GOLDSBORO LGT RAIN 50 48 93 E6 30.21F GREENVILLE CLOUDY 52 43 71 CALM 30.26F HAVELOCK LGT RAIN 59 54 83 N3 30.25F KENANSVILLE LGT RAIN 50 48 92 CALM 30.24F KINSTON LGT RAIN 50 45 81 CALM 30.25F NEW BERN LGT RAIN 56 49 77 NE3 30.26F RICHLANDS CLOUDY 54 48 82 N5 30.23F ROCKY MOUNT CLOUDY 49 38 65 SE5 30.25F WASHINGTON CLOUDY 53 45 74 CALM 30.27F WHITEVILLE LGT RAIN 57 55 94 E6 30.16F $$ AMZ130-135-150-152-154-156-158-170-250-252-270-ANZ085-086-088-633-658-670-231700- MARINE OBSERVATIONS STATION/POSITION TIME TEMP WIND PRES WAVE SWELL AIR SEA DIR/SP/G HT/PER HT/PER (UTC) (F) (DEG/KT/KT) (MB) (FT/S) (FT/S) CHESAPEAKE LIGHT 1500 53 150/ 4/ 4 1025.6 64 E VA BEACH 1600 65 65 190/ 8/ 10 1024.7 2/ 8 2/ 8 DUCK 1600 59 55 160/ 8/ 8 1024.4 2 E DUCK 1600 56 N/A 1/ 8 10 NE DUCK 1600 58 N/A 2/ 8 OREGON INLET 1600 61 50 120/ 5/ 8 1024.8 13E OREGON INLT 1600 62 N/A 2/ 8 HATTERAS CG 1600 65 52 150/ 10/ 14 1024.6 DIAMOND BUOY 1600 70 160/ 12/ 14 1024.8 3/ 9 2/ 9 17 S OCRACOKE NOT AVBL CAPE LOOKOUT 1500 63 150/ 11/ 11 1024.2 BEAUFORT LAB 1600 62 54 140/ 6/ 7 1022.9 30 SE NEW RIVER 1600 69 69 160/ 17/ 21 1022.6 3/ 9 2/ 9 5 SE WRIGHTSVLE 1500 57 60 140/ 8/ 10 1023.7 225 S CAPE HAT 1543 72 73 140/ 16/ 19 1024.4 5/ 5 2/ 8 41 SE CHARLESTON 1600 69 75 100/ 21/ 25 1018.4 9/ 7 2/15 $$

USA.gov is the U.S. government's official web portal to all federal, state and local government web resources and services.